Time,TemperatureF,DewpointF,PressureIn,WindDirection,WindDirectionDegrees,WindSpeedMPH,WindSpeedGustMPH,Humidity,HourlyPrecipIn,Conditions,Clouds,dailyrainin,SolarRadiationWatts/m^2,SoftwareType,DateUTC
2013-07-27 00:02:00,67.0,64.0,-100.00,ENE,58,1.0,3.0,91,0.00,,,0.00,0.000000,,2013-07-27 04:02:00,
2013-07-27 00:11:00,67.0,63.0,-100.00,North,351,1.0,3.0,86,0.00,,,-99.99,0.000000,,2013-07-27 04:11:00,
2013-07-27 00:43:00,67.0,63.0,-100.00,North,351,1.0,3.0,86,0.00,,,-99.99,0.000000,,2013-07-27 04:43:00,
2013-07-27 00:53:00,67.0,63.0,-100.00,North,351,1.0,3.0,86,0.00,,,-99.99,0.000000,,2013-07-27 04:53:00,
2013-07-27 01:02:00,67.0,63.0,-100.00,North,351,1.0,3.0,86,0.00,,,-99.99,0.000000,,2013-07-27 05:02:00,
2013-07-27 01:11:00,67.0,63.0,-100.00,NW,309,1.0,4.0,88,0.00,,,0.00,0.000000,,2013-07-27 05:11:00,
2013-07-27 01:43:00,67.0,63.0,-100.00,NW,309,1.0,4.0,88,0.00,,,0.00,0.000000,,2013-07-27 05:43:00,
2013-07-27 01:52:00,67.0,63.0,-100.00,NW,309,1.0,4.0,88,0.00,,,0.00,0.000000,,2013-07-27 05:52:00,
2013-07-27 02:02:00,67.0,63.0,-100.00,NW,309,1.0,4.0,88,0.00,,,0.00,0.000000,,2013-07-27 06:02:00,
2013-07-27 02:11:00,65.0,63.0,-100.00,NE,43,1.0,3.0,93,0.00,,,0.00,0.000000,,2013-07-27 06:11:00,
2013-07-27 02:43:00,65.0,63.0,-100.00,NE,43,1.0,3.0,93,0.00,,,0.00,0.000000,,2013-07-27 06:43:00,
2013-07-27 02:52:00,65.0,63.0,-100.00,NE,43,1.0,3.0,93,0.00,,,0.00,0.000000,,2013-07-27 06:52:00,
2013-07-27 03:02:00,65.0,63.0,-100.00,NE,43,1.0,3.0,93,0.00,,,0.00,0.000000,,2013-07-27 07:02:00,
2013-07-27 03:11:00,64.0,62.0,-100.00,North,350,0.0,0.0,94,0.00,,,0.00,0.000000,,2013-07-27 07:11:00,
2013-07-27 03:44:00,64.0,62.0,-100.00,North,350,0.0,0.0,94,0.00,,,0.00,0.000000,,2013-07-27 07:44:00,
2013-07-27 03:53:00,64.0,62.0,-100.00,North,350,0.0,0.0,94,0.00,,,0.00,0.000000,,2013-07-27 07:53:00,
2013-07-27 04:02:00,64.0,62.0,-100.00,North,350,0.0,0.0,94,0.00,,,0.00,0.000000,,2013-07-27 08:02:00,
2013-07-27 04:11:00,64.0,62.0,-100.00,WNW,296,0.0,1.0,94,0.00,,,0.00,0.000000,,2013-07-27 08:11:00,
2013-07-27 04:43:00,64.0,62.0,-100.00,WNW,296,0.0,1.0,94,0.00,,,0.00,0.000000,,2013-07-27 08:43:00,
2013-07-27 04:53:00,64.0,62.0,-100.00,WNW,296,0.0,1.0,94,0.00,,,0.00,0.000000,,2013-07-27 08:53:00,
2013-07-27 05:02:00,64.0,62.0,-100.00,WNW,296,0.0,1.0,94,0.00,,,0.00,0.000000,,2013-07-27 09:02:00,
2013-07-27 05:11:00,63.0,62.0,-100.00,South,177,0.0,0.0,96,0.00,,,0.00,0.000000,,2013-07-27 09:11:00,
2013-07-27 05:44:00,63.0,62.0,-100.00,South,177,0.0,0.0,96,0.00,,,0.00,0.000000,,2013-07-27 09:44:00,
2013-07-27 05:52:00,63.0,62.0,-100.00,South,177,0.0,0.0,96,0.00,,,0.00,0.000000,,2013-07-27 09:52:00,
2013-07-27 06:02:00,63.0,62.0,-100.00,South,177,0.0,0.0,96,0.00,,,0.00,0.000000,,2013-07-27 10:02:00,
2013-07-27 06:11:00,63.0,62.0,-100.00,NW,309,0.0,2.0,97,0.00,,,0.00,0.000000,,2013-07-27 10:11:00,
2013-07-27 06:44:00,63.0,62.0,-100.00,NW,309,0.0,2.0,97,0.00,,,0.00,0.000000,,2013-07-27 10:44:00,
2013-07-27 06:52:00,63.0,62.0,-100.00,NW,309,0.0,2.0,97,0.00,,,0.00,0.000000,,2013-07-27 10:52:00,
2013-07-27 07:02:00,63.0,62.0,-100.00,NW,309,0.0,2.0,97,0.00,,,0.00,0.000000,,2013-07-27 11:02:00,
2013-07-27 07:11:00,63.0,62.0,-100.00,WNW,287,1.0,1.0,98,0.00,,,0.00,3.000000,,2013-07-27 11:11:00,
2013-07-27 07:44:00,63.0,62.0,-100.00,WNW,287,1.0,1.0,98,0.00,,,0.00,3.000000,,2013-07-27 11:44:00,
2013-07-27 07:53:00,63.0,62.0,-100.00,WNW,287,1.0,1.0,98,0.00,,,0.00,3.000000,,2013-07-27 11:53:00,
2013-07-27 08:03:00,63.0,62.0,-100.00,WNW,287,1.0,1.0,98,0.00,,,0.00,3.000000,,2013-07-27 12:03:00,
2013-07-27 08:11:00,65.0,64.0,-100.00,NNW,341,0.0,2.0,98,0.00,,,0.00,55.000000,,2013-07-27 12:11:00,
2013-07-27 08:43:00,65.0,64.0,-100.00,NNW,341,0.0,2.0,98,0.00,,,0.00,55.000000,,2013-07-27 12:43:00,
2013-07-27 08:52:00,65.0,64.0,-100.00,NNW,341,0.0,2.0,98,0.00,,,0.00,55.000000,,2013-07-27 12:52:00,
2013-07-27 09:02:00,65.0,64.0,-100.00,NNW,341,0.0,2.0,98,0.00,,,0.00,55.000000,,2013-07-27 13:02:00,
2013-07-27 09:11:00,69.0,65.0,-100.00,ENE,64,2.0,3.0,86,0.00,,,0.00,177.000000,,2013-07-27 13:11:00,
2013-07-27 09:44:00,69.0,65.0,-100.00,ENE,64,2.0,3.0,86,0.00,,,0.00,177.000000,,2013-07-27 13:44:00,
2013-07-27 09:53:00,69.0,65.0,-100.00,ENE,64,2.0,3.0,86,0.00,,,0.00,177.000000,,2013-07-27 13:53:00,
2013-07-27 10:02:00,69.0,65.0,-100.00,ENE,64,2.0,3.0,86,0.00,,,0.00,177.000000,,2013-07-27 14:02:00,
2013-07-27 10:11:00,75.0,67.0,-100.00,NE,54,2.0,6.0,76,0.00,,,0.00,504.000000,,2013-07-27 14:11:00,
2013-07-27 10:44:00,75.0,67.0,-100.00,NE,54,2.0,6.0,76,0.00,,,0.00,504.000000,,2013-07-27 14:44:00,
2013-07-27 10:54:00,75.0,67.0,-100.00,NE,54,2.0,6.0,76,0.00,,,0.00,504.000000,,2013-07-27 14:54:00,
2013-07-27 11:02:00,75.0,67.0,-100.00,NE,54,2.0,6.0,76,0.00,,,0.00,504.000000,,2013-07-27 15:02:00,
2013-07-27 11:11:00,77.0,67.0,-100.00,ENE,58,4.0,9.0,72,0.00,,,0.00,581.000000,,2013-07-27 15:11:00,
2013-07-27 11:44:00,77.0,67.0,-100.00,ENE,58,4.0,9.0,72,0.00,,,0.00,581.000000,,2013-07-27 15:44:00,
2013-07-27 11:53:00,77.0,67.0,-100.00,ENE,58,4.0,9.0,72,0.00,,,0.00,581.000000,,2013-07-27 15:53:00,
2013-07-27 12:02:00,77.0,67.0,-100.00,ENE,58,4.0,9.0,72,0.00,,,0.00,581.000000,,2013-07-27 16:02:00,
2013-07-27 12:11:00,75.0,64.0,-100.00,ENE,65,3.0,8.0,68,0.00,,,0.00,456.000000,,2013-07-27 16:11:00,
2013-07-27 12:33:00,75.0,64.0,-100.00,ENE,65,3.0,8.0,68,0.00,,,0.00,456.000000,,2013-07-27 16:33:00,
2013-07-27 12:43:00,75.0,64.0,-100.00,ENE,65,3.0,8.0,68,0.00,,,0.00,456.000000,,2013-07-27 16:43:00,
2013-07-27 12:54:00,75.0,64.0,-100.00,ENE,65,3.0,8.0,68,0.00,,,0.00,456.000000,,2013-07-27 16:54:00,
2013-07-27 13:02:00,75.0,64.0,-100.00,ENE,65,3.0,8.0,68,0.00,,,0.00,456.000000,,2013-07-27 17:02:00,
2013-07-27 13:11:00,77.0,64.0,-100.00,East,94,3.0,9.0,64,0.00,,,0.00,719.000000,,2013-07-27 17:11:00,
2013-07-27 13:32:00,77.0,64.0,-100.00,East,94,3.0,9.0,64,0.00,,,0.00,719.000000,,2013-07-27 17:32:00,
2013-07-27 13:43:00,77.0,64.0,-100.00,East,94,3.0,9.0,64,0.00,,,0.00,719.000000,,2013-07-27 17:43:00,
2013-07-27 13:54:00,77.0,64.0,-100.00,East,94,3.0,9.0,64,0.00,,,0.00,719.000000,,2013-07-27 17:54:00,
2013-07-27 14:03:00,77.0,64.0,-100.00,East,94,3.0,9.0,64,0.00,,,0.00,719.000000,,2013-07-27 18:03:00,
2013-07-27 14:11:00,80.0,68.0,-100.00,East,100,2.0,7.0,66,0.00,,,0.00,701.000000,,2013-07-27 18:11:00,
2013-07-27 14:33:00,80.0,68.0,-100.00,East,100,2.0,7.0,66,0.00,,,0.00,701.000000,,2013-07-27 18:33:00,
2013-07-27 14:43:00,80.0,68.0,-100.00,East,100,2.0,7.0,66,0.00,,,0.00,701.000000,,2013-07-27 18:43:00,
2013-07-27 14:53:00,80.0,68.0,-100.00,East,100,2.0,7.0,66,0.00,,,0.00,701.000000,,2013-07-27 18:53:00,
2013-07-27 15:02:00,80.0,68.0,-100.00,East,100,2.0,7.0,66,0.00,,,0.00,701.000000,,2013-07-27 19:02:00,
2013-07-27 15:11:00,81.0,64.0,-100.00,ESE,118,3.0,8.0,57,0.00,,,0.00,884.000000,,2013-07-27 19:11:00,
2013-07-27 15:43:00,81.0,64.0,-100.00,ESE,118,3.0,8.0,57,0.00,,,0.00,884.000000,,2013-07-27 19:43:00,
2013-07-27 15:53:00,81.0,64.0,-100.00,ESE,118,3.0,8.0,57,0.00,,,0.00,884.000000,,2013-07-27 19:53:00,
2013-07-27 16:02:00,81.0,64.0,-100.00,ESE,118,3.0,8.0,57,0.00,,,0.00,884.000000,,2013-07-27 20:02:00,
2013-07-27 16:11:00,76.0,63.0,-100.00,ENE,64,2.0,7.0,65,0.00,,,0.00,365.000000,,2013-07-27 20:11:00,
2013-07-27 16:33:00,76.0,63.0,-100.00,ENE,64,2.0,7.0,65,0.00,,,0.00,365.000000,,2013-07-27 20:33:00,
2013-07-27 16:43:00,76.0,63.0,-100.00,ENE,64,2.0,7.0,65,0.00,,,0.00,365.000000,,2013-07-27 20:43:00,
2013-07-27 16:52:00,76.0,63.0,-100.00,ENE,64,2.0,7.0,65,0.00,,,0.00,365.000000,,2013-07-27 20:52:00,
2013-07-27 17:03:00,76.0,63.0,-100.00,ENE,64,2.0,7.0,65,0.00,,,0.00,365.000000,,2013-07-27 21:03:00,
2013-07-27 17:11:00,78.0,60.0,-100.00,NE,50,4.0,9.0,54,0.00,,,0.00,772.000000,,2013-07-27 21:11:00,
2013-07-27 17:43:00,78.0,60.0,-100.00,NE,50,4.0,9.0,54,0.00,,,0.00,772.000000,,2013-07-27 21:43:00,
2013-07-27 17:53:00,78.0,60.0,-100.00,NE,50,4.0,9.0,54,0.00,,,0.00,772.000000,,2013-07-27 21:53:00,
2013-07-27 18:02:00,78.0,60.0,-100.00,NE,50,4.0,9.0,54,0.00,,,0.00,772.000000,,2013-07-27 22:02:00,
2013-07-27 18:11:00,76.0,60.0,-100.00,NNW,346,2.0,7.0,58,0.00,,,0.00,469.000000,,2013-07-27 22:11:00,
2013-07-27 18:33:00,76.0,60.0,-100.00,NNW,346,2.0,7.0,58,0.00,,,0.00,469.000000,,2013-07-27 22:33:00,
2013-07-27 18:43:00,76.0,60.0,-100.00,NNW,346,2.0,7.0,58,0.00,,,0.00,469.000000,,2013-07-27 22:43:00,
2013-07-27 18:53:00,76.0,60.0,-100.00,NNW,346,2.0,7.0,58,0.00,,,0.00,469.000000,,2013-07-27 22:53:00,
2013-07-27 19:02:00,76.0,60.0,-100.00,NNW,346,2.0,7.0,58,0.00,,,0.00,469.000000,,2013-07-27 23:02:00,
2013-07-27 19:11:00,73.0,60.0,-100.00,NNW,346,2.0,7.0,63,0.00,,,0.00,213.000000,,2013-07-27 23:11:00,
2013-07-27 19:44:00,73.0,60.0,-100.00,NNW,346,2.0,7.0,63,0.00,,,0.00,213.000000,,2013-07-27 23:44:00,
2013-07-27 19:53:00,73.0,60.0,-100.00,NNW,346,2.0,7.0,63,0.00,,,0.00,213.000000,,2013-07-27 23:53:00,
2013-07-27 20:02:00,73.0,60.0,-100.00,NNW,346,2.0,7.0,63,0.00,,,0.00,213.000000,,2013-07-28 00:02:00,
2013-07-27 21:11:00,69.0,62.0,-100.00,NNW,327,1.0,4.0,78,-99.99,,,0.00,10.000000,,2013-07-28 01:11:00,
2013-07-27 21:32:00,69.0,62.0,-100.00,NNW,327,1.0,4.0,78,-99.99,,,0.00,10.000000,,2013-07-28 01:32:00,
2013-07-27 21:43:00,69.0,62.0,-100.00,NNW,327,1.0,4.0,78,-99.99,,,0.00,10.000000,,2013-07-28 01:43:00,
2013-07-27 21:53:00,69.0,62.0,-100.00,NNW,327,1.0,4.0,78,-99.99,,,0.00,10.000000,,2013-07-28 01:53:00,
2013-07-27 22:03:00,69.0,62.0,-100.00,NNW,327,1.0,4.0,78,-99.99,,,0.00,10.000000,,2013-07-28 02:03:00,
2013-07-27 22:11:00,67.0,61.0,-100.00,NNE,25,2.0,4.0,82,0.00,,,0.00,0.000000,,2013-07-28 02:11:00,
2013-07-27 22:42:00,67.0,61.0,-100.00,NNE,25,2.0,4.0,82,0.00,,,0.00,0.000000,,2013-07-28 02:42:00,
2013-07-27 22:53:00,67.0,61.0,-100.00,NNE,25,2.0,4.0,82,0.00,,,0.00,0.000000,,2013-07-28 02:53:00,
2013-07-27 23:03:00,67.0,61.0,-100.00,NNE,25,2.0,4.0,82,0.00,,,0.00,0.000000,,2013-07-28 03:03:00,
2013-07-27 23:11:00,66.0,62.0,-100.00,North,358,1.0,4.0,86,0.00,,,0.00,0.000000,,2013-07-28 03:11:00,
2013-07-27 23:32:00,66.0,62.0,-100.00,North,358,1.0,4.0,86,0.00,,,0.00,0.000000,,2013-07-28 03:32:00,
2013-07-27 23:43:00,66.0,62.0,-100.00,North,358,1.0,4.0,86,0.00,,,0.00,0.000000,,2013-07-28 03:43:00,
2013-07-27 23:53:00,66.0,62.0,-100.00,North,358,1.0,4.0,86,0.00,,,0.00,0.000000,,2013-07-28 03:53:00,